Year,Month,Day,Hour,Minute,Value (Times are PST for temperature in C)
2018,04,23,10,06,13.30
2018,04,23,10,07,13.30
2018,04,23,10,08,13.40
2018,04,23,10,09,13.50
2018,04,23,10,10,13.50
2018,04,23,10,11,13.60
2018,04,23,10,12,13.60
2018,04,23,10,13,13.70
2018,04,23,10,14,13.80
2018,04,23,10,15,13.80
2018,04,23,10,16,13.80
2018,04,23,10,17,13.90
2018,04,23,10,18,14.00
2018,04,23,10,19,14.00
2018,04,23,10,20,14.10
2018,04,23,10,21,14.20
2018,04,23,10,22,14.30
2018,04,23,10,23,14.30
2018,04,23,10,24,14.40
2018,04,23,10,25,14.50
2018,04,23,10,26,14.50
2018,04,23,10,27,14.60
2018,04,23,10,28,14.60
2018,04,23,10,29,14.60
2018,04,23,10,30,14.70
2018,04,23,10,31,14.70
2018,04,23,10,32,14.70
2018,04,23,10,33,14.70
2018,04,23,10,34,14.70
2018,04,23,10,35,14.70
2018,04,23,10,36,14.80
2018,04,23,10,37,14.80
2018,04,23,10,38,14.90
2018,04,23,10,39,14.90
2018,04,23,10,40,14.90
2018,04,23,10,41,14.90
2018,04,23,10,42,14.90
2018,04,23,10,43,15.00
2018,04,23,10,44,15.00
2018,04,23,10,45,15.00
2018,04,23,10,46,15.10
2018,04,23,10,47,15.10
2018,04,23,10,48,15.10
2018,04,23,10,49,15.20
2018,04,23,10,50,15.20
2018,04,23,10,51,15.20
2018,04,23,10,52,15.30
2018,04,23,10,53,15.30
2018,04,23,10,54,15.30
2018,04,23,10,55,15.30
2018,04,23,10,56,15.40
2018,04,23,10,57,15.50
2018,04,23,10,58,15.50
2018,04,23,10,59,15.50
2018,04,23,11,00,15.60
2018,04,23,11,01,15.60
2018,04,23,11,02,15.60
2018,04,23,11,03,15.60
2018,04,23,11,04,15.60
2018,04,23,11,05,15.60
2018,04,23,11,06,15.60
2018,04,23,11,07,15.60
2018,04,23,11,08,15.70
2018,04,23,11,09,15.70
2018,04,23,11,10,15.70
2018,04,23,11,11,15.80
2018,04,23,11,12,15.80
2018,04,23,11,13,15.80
2018,04,23,11,14,15.80
2018,04,23,11,15,15.80
2018,04,23,11,16,15.80
2018,04,23,11,17,15.80
2018,04,23,11,18,15.80
2018,04,23,11,19,15.80
2018,04,23,11,20,15.80
2018,04,23,11,21,15.80
2018,04,23,11,22,15.90
2018,04,23,11,23,15.90
2018,04,23,11,24,16.00
2018,04,23,11,25,16.00
2018,04,23,11,26,16.00
2018,04,23,11,27,16.10
2018,04,23,11,28,16.10
2018,04,23,11,29,16.10
2018,04,23,11,30,16.00
2018,04,23,11,31,15.90
2018,04,23,11,32,15.80
2018,04,23,11,33,15.80
2018,04,23,11,34,15.70
2018,04,23,11,35,15.70
2018,04,23,11,36,15.70
2018,04,23,11,37,15.70
2018,04,23,11,38,15.60
2018,04,23,11,39,15.60
2018,04,23,11,40,15.50
2018,04,23,11,41,15.50
2018,04,23,11,42,15.50
2018,04,23,11,43,15.50
2018,04,23,11,44,15.50
2018,04,23,11,45,15.40
2018,04,23,11,46,15.30
2018,04,23,11,47,15.10
2018,04,23,11,48,15.10
2018,04,23,11,49,15.00
2018,04,23,11,50,14.90
2018,04,23,11,51,14.90
2018,04,23,11,52,14.90
2018,04,23,11,53,14.90
2018,04,23,11,54,14.90
2018,04,23,11,55,15.00
2018,04,23,11,56,15.00
2018,04,23,11,57,15.10
2018,04,23,11,58,15.10
2018,04,23,11,59,15.20
2018,04,23,12,00,15.20
2018,04,23,12,01,15.30
2018,04,23,12,02,15.30
2018,04,23,12,03,15.30
2018,04,23,12,04,15.30
2018,04,23,12,05,15.30
2018,04,23,12,06,15.20
2018,04,23,12,07,15.20
2018,04,23,12,08,15.10
2018,04,23,12,09,15.10
2018,04,23,12,10,15.10
2018,04,23,12,11,15.20
2018,04,23,12,12,15.20
2018,04,23,12,13,15.30
2018,04,23,12,14,15.30
2018,04,23,12,15,15.40
2018,04,23,12,16,15.30
2018,04,23,12,17,15.30
2018,04,23,12,18,15.30
2018,04,23,12,19,15.40
2018,04,23,12,20,15.40
2018,04,23,12,21,15.40
2018,04,23,12,22,15.40
2018,04,23,12,23,15.40
2018,04,23,12,24,15.50
2018,04,23,12,25,15.50
2018,04,23,12,26,15.60
2018,04,23,12,27,15.60
2018,04,23,12,28,15.70
2018,04,23,12,29,15.70
2018,04,23,12,30,15.80
2018,04,23,12,31,15.80
2018,04,23,12,32,15.90
2018,04,23,12,33,16.00
2018,04,23,12,34,16.00
2018,04,23,12,35,16.10
2018,04,23,12,36,16.20
2018,04,23,12,37,16.30
2018,04,23,12,38,16.40
2018,04,23,12,39,16.40
2018,04,23,12,40,16.50
2018,04,23,12,41,16.50
2018,04,23,12,42,16.60
2018,04,23,12,43,16.60
2018,04,23,12,44,16.50
2018,04,23,12,45,16.60
2018,04,23,12,46,16.60
2018,04,23,12,47,16.60
2018,04,23,12,48,16.60
2018,04,23,12,49,16.60
2018,04,23,12,50,16.60
2018,04,23,12,51,16.60
2018,04,23,12,52,16.60
2018,04,23,12,53,16.60
2018,04,23,12,54,16.60
2018,04,23,12,55,16.60
2018,04,23,12,56,16.70
2018,04,23,12,57,16.70
2018,04,23,12,58,16.80
2018,04,23,12,59,16.90
2018,04,23,13,00,16.90
2018,04,23,13,01,17.00
2018,04,23,13,02,17.00
2018,04,23,13,03,17.10
2018,04,23,13,04,17.00
2018,04,23,13,05,17.00
2018,04,23,13,06,16.80
2018,04,23,13,07,16.80
2018,04,23,13,08,16.70
2018,04,23,13,09,16.60
2018,04,23,13,10,16.50
2018,04,23,13,11,16.40
2018,04,23,13,12,16.40
2018,04,23,13,13,16.40
2018,04,23,13,14,16.30
2018,04,23,13,15,16.30
2018,04,23,13,16,16.30
2018,04,23,13,17,16.20
2018,04,23,13,18,16.20
2018,04,23,13,19,16.20
2018,04,23,13,20,16.30
2018,04,23,13,21,16.30
2018,04,23,13,22,16.30
2018,04,23,13,23,16.30
2018,04,23,13,24,16.30
2018,04,23,13,25,16.30
2018,04,23,13,26,16.30
2018,04,23,13,27,16.30
2018,04,23,13,28,16.30
2018,04,23,13,29,16.30
2018,04,23,13,30,16.40
2018,04,23,13,31,16.40
2018,04,23,13,32,16.50
2018,04,23,13,33,16.60
2018,04,23,13,34,16.70
2018,04,23,13,35,16.80
2018,04,23,13,36,16.80
2018,04,23,13,37,16.90
2018,04,23,13,38,17.00
2018,04,23,13,39,17.00
2018,04,23,13,40,17.10
2018,04,23,13,41,17.10
2018,04,23,13,42,17.10
2018,04,23,13,43,17.10
2018,04,23,13,44,17.10
2018,04,23,13,45,17.10
2018,04,23,13,46,17.10
2018,04,23,13,47,17.00
2018,04,23,13,48,17.00
2018,04,23,13,49,16.90
2018,04,23,13,50,16.90
2018,04,23,13,51,16.90
2018,04,23,13,52,16.80
2018,04,23,13,53,16.70
2018,04,23,13,54,16.70
2018,04,23,13,55,16.70
2018,04,23,13,56,16.70
2018,04,23,13,57,16.70
2018,04,23,13,58,16.40
2018,04,23,13,59,16.30
2018,04,23,14,00,16.20
2018,04,23,14,01,16.20
2018,04,23,14,02,16.30
2018,04,23,14,03,16.30
2018,04,23,14,04,16.40
2018,04,23,14,05,16.40
2018,04,23,14,06,16.50
2018,04,23,14,07,16.60
2018,04,23,14,08,16.70
2018,04,23,14,09,16.80
2018,04,23,14,10,16.90
2018,04,23,14,11,16.90
2018,04,23,14,12,16.90
2018,04,23,14,13,16.90
2018,04,23,14,14,16.90
2018,04,23,14,15,17.00
2018,04,23,14,16,17.00
2018,04,23,14,17,17.00
2018,04,23,14,18,17.00
2018,04,23,14,19,16.90
2018,04,23,14,20,16.90
2018,04,23,14,21,16.90
2018,04,23,14,22,16.90
2018,04,23,14,23,16.80
2018,04,23,14,24,16.80
2018,04,23,14,25,16.70
2018,04,23,14,26,16.70
2018,04,23,14,27,16.60
2018,04,23,14,28,16.60
2018,04,23,14,29,16.60
2018,04,23,14,30,16.60
2018,04,23,14,31,16.60
2018,04,23,14,32,16.60
2018,04,23,14,33,16.60
2018,04,23,14,34,16.60
2018,04,23,14,35,16.60
2018,04,23,14,36,16.60
2018,04,23,14,37,16.60
2018,04,23,14,38,16.60
2018,04,23,14,39,16.60
2018,04,23,14,40,16.60
2018,04,23,14,41,16.60
2018,04,23,14,42,16.60
2018,04,23,14,43,16.50
2018,04,23,14,44,16.50
2018,04,23,14,45,16.40
2018,04,23,14,46,16.50
2018,04,23,14,47,16.50
2018,04,23,14,48,16.60
2018,04,23,14,49,16.60
2018,04,23,14,50,16.60
2018,04,23,14,51,16.70
2018,04,23,14,52,16.60
2018,04,23,14,53,16.60
2018,04,23,14,54,16.60
2018,04,23,14,55,16.60
2018,04,23,14,56,16.60
2018,04,23,14,57,16.60
2018,04,23,14,58,16.60
2018,04,23,14,59,16.70
2018,04,23,15,00,16.70
2018,04,23,15,01,16.70
2018,04,23,15,02,16.70
2018,04,23,15,03,16.70
2018,04,23,15,04,16.70
2018,04,23,15,05,16.70
2018,04,23,15,06,16.70
2018,04,23,15,07,16.70
2018,04,23,15,08,16.80
2018,04,23,15,09,16.80
2018,04,23,15,10,16.80
2018,04,23,15,11,16.80
2018,04,23,15,12,16.90
2018,04,23,15,13,16.90
2018,04,23,15,14,17.00
2018,04,23,15,15,17.10
2018,04,23,15,16,17.10
2018,04,23,15,17,17.20
2018,04,23,15,18,17.20
2018,04,23,15,19,17.20
2018,04,23,15,20,17.30
2018,04,23,15,21,17.30
2018,04,23,15,22,17.30
2018,04,23,15,23,17.30
2018,04,23,15,24,17.40
2018,04,23,15,25,17.40
2018,04,23,15,26,17.50
2018,04,23,15,27,17.60
2018,04,23,15,28,17.70
2018,04,23,15,29,17.80
2018,04,23,15,30,17.90
2018,04,23,15,31,18.00
2018,04,23,15,32,18.00
2018,04,23,15,33,18.00
2018,04,23,15,34,18.00
2018,04,23,15,35,18.00
2018,04,23,15,36,18.10
2018,04,23,15,37,18.10
2018,04,23,15,38,18.10
2018,04,23,15,39,18.20
2018,04,23,15,40,18.20
2018,04,23,15,41,18.30
2018,04,23,15,42,18.20
2018,04,23,15,43,18.30
2018,04,23,15,44,18.20
2018,04,23,15,45,18.20
2018,04,23,15,46,18.10
2018,04,23,15,47,18.00
2018,04,23,15,48,18.00
2018,04,23,15,49,18.00
2018,04,23,15,50,18.00
2018,04,23,15,51,18.00
2018,04,23,15,52,18.00
2018,04,23,15,53,18.00
2018,04,23,15,54,17.90
2018,04,23,15,55,17.90
2018,04,23,15,56,17.90
2018,04,23,15,57,17.90
2018,04,23,15,58,17.90
2018,04,23,15,59,17.80
2018,04,23,16,00,17.80
2018,04,23,16,01,17.70
2018,04,23,16,02,17.70
2018,04,23,16,03,17.70
2018,04,23,16,04,17.60
2018,04,23,16,05,17.60
2018,04,23,16,06,17.60
2018,04,23,16,07,17.60
2018,04,23,16,08,17.60
2018,04,23,16,09,17.60
2018,04,23,16,10,17.70
2018,04,23,16,11,17.70
2018,04,23,16,12,17.80
2018,04,23,16,13,17.80
2018,04,23,16,14,17.80
2018,04,23,16,15,17.90
2018,04,23,16,16,18.00
2018,04,23,16,17,18.00
2018,04,23,16,18,18.10
2018,04,23,16,19,18.00
2018,04,23,16,20,18.00
2018,04,23,16,21,17.90
2018,04,23,16,22,17.80
2018,04,23,16,23,17.80
2018,04,23,16,24,17.80
2018,04,23,16,25,17.80
2018,04,23,16,26,17.80
2018,04,23,16,27,17.80
2018,04,23,16,28,17.80
2018,04,23,16,29,17.80
2018,04,23,16,30,17.80
2018,04,23,16,31,17.80
2018,04,23,16,32,17.70
2018,04,23,16,33,17.70
2018,04,23,16,34,17.60
2018,04,23,16,35,17.50
2018,04,23,16,36,17.50
2018,04,23,16,37,17.30
2018,04,23,16,38,17.20
2018,04,23,16,39,17.10
2018,04,23,16,40,17.00
2018,04,23,16,41,16.90
2018,04,23,16,42,16.90
2018,04,23,16,43,16.90
2018,04,23,16,44,17.00
2018,04,23,16,45,17.00
2018,04,23,16,46,17.10
2018,04,23,16,47,17.10
2018,04,23,16,48,17.10
2018,04,23,16,49,17.00
2018,04,23,16,50,17.00
2018,04,23,16,51,17.00
2018,04,23,16,52,17.10
2018,04,23,16,53,17.10
2018,04,23,16,54,17.20
2018,04,23,16,55,17.20
2018,04,23,16,56,17.20
2018,04,23,16,57,17.00
2018,04,23,16,58,16.80
2018,04,23,16,59,16.70
2018,04,23,17,00,16.60
2018,04,23,17,01,16.60
2018,04,23,17,02,16.50
2018,04,23,17,03,16.40
2018,04,23,17,04,16.30
2018,04,23,17,05,16.20
2018,04,23,17,06,16.20
2018,04,23,17,07,16.10
2018,04,23,17,08,16.10
2018,04,23,17,09,16.10
2018,04,23,17,10,16.10
2018,04,23,17,11,16.10
2018,04,23,17,12,16.10
2018,04,23,17,13,16.00
2018,04,23,17,14,15.90
2018,04,23,17,15,15.90
2018,04,23,17,16,15.90
2018,04,23,17,17,15.90
2018,04,23,17,18,16.00
2018,04,23,17,19,16.00
2018,04,23,17,20,16.10
2018,04,23,17,21,16.10
2018,04,23,17,22,16.20
2018,04,23,17,23,16.20
2018,04,23,17,24,16.30
2018,04,23,17,25,16.40
2018,04,23,17,26,16.40
2018,04,23,17,27,16.50
2018,04,23,17,28,16.50
2018,04,23,17,29,16.60
2018,04,23,17,30,16.60
2018,04,23,17,31,16.60
2018,04,23,17,32,16.60
2018,04,23,17,33,16.60
2018,04,23,17,34,16.60
2018,04,23,17,35,16.60
2018,04,23,17,36,16.60
2018,04,23,17,37,16.60
2018,04,23,17,38,16.60
2018,04,23,17,39,16.60
2018,04,23,17,40,16.60
2018,04,23,17,41,16.60
2018,04,23,17,42,16.70
2018,04,23,17,43,16.70
2018,04,23,17,44,16.70
2018,04,23,17,45,16.70
2018,04,23,17,46,16.70
2018,04,23,17,47,16.70
2018,04,23,17,48,16.80
2018,04,23,17,49,16.80
2018,04,23,17,50,16.80
2018,04,23,17,51,16.80
2018,04,23,17,52,16.90
2018,04,23,17,53,16.90
2018,04,23,17,54,16.90
2018,04,23,17,55,17.00
2018,04,23,17,56,17.00
2018,04,23,17,57,17.00
2018,04,23,17,58,17.10
2018,04,23,17,59,17.10
2018,04,23,18,00,17.10
2018,04,23,18,01,17.00
2018,04,23,18,02,17.00
2018,04,23,18,03,17.00
2018,04,23,18,04,17.00
2018,04,23,18,05,16.90
2018,04,23,18,06,16.80
2018,04,23,18,07,16.70
2018,04,23,18,08,16.50
2018,04,23,18,09,16.40
2018,04,23,18,10,16.20
2018,04,23,18,11,16.00
2018,04,23,18,12,15.80
2018,04,23,18,13,15.60
2018,04,23,18,14,15.50
2018,04,23,18,15,15.40
2018,04,23,18,16,15.40
2018,04,23,18,17,15.40
2018,04,23,18,18,15.40
2018,04,23,18,19,15.40
2018,04,23,18,20,15.30
2018,04,23,18,21,15.30
2018,04,23,18,22,15.30
2018,04,23,18,23,15.30
2018,04,23,18,24,15.30
2018,04,23,18,25,15.30
2018,04,23,18,26,15.40
2018,04,23,18,27,15.40
2018,04,23,18,28,15.40
2018,04,23,18,29,15.50
2018,04,23,18,30,15.50
2018,04,23,18,31,15.50
2018,04,23,18,32,15.50
2018,04,23,18,33,15.50
2018,04,23,18,34,15.40
2018,04,23,18,35,15.30
2018,04,23,18,36,15.30
2018,04,23,18,37,15.20
2018,04,23,18,38,15.10
2018,04,23,18,39,15.10
2018,04,23,18,40,15.00
2018,04,23,18,41,15.00
2018,04,23,18,42,15.00
2018,04,23,18,43,15.00
2018,04,23,18,44,15.10
2018,04,23,18,45,15.10
2018,04,23,18,46,15.10
2018,04,23,18,47,15.10
2018,04,23,18,48,15.10
2018,04,23,18,49,15.20
2018,04,23,18,50,15.20
2018,04,23,18,51,15.10
2018,04,23,18,52,15.10
2018,04,23,18,53,15.00
2018,04,23,18,54,15.00
2018,04,23,18,55,14.90
2018,04,23,18,56,14.90
2018,04,23,18,57,14.80
2018,04,23,18,58,14.70
2018,04,23,18,59,14.60
2018,04,23,19,00,14.50
2018,04,23,19,01,14.40
2018,04,23,19,02,14.30
2018,04,23,19,03,14.20
2018,04,23,19,04,14.20
2018,04,23,19,05,14.20
2018,04,23,19,06,14.10
2018,04,23,19,07,14.10
2018,04,23,19,08,14.10
2018,04,23,19,09,14.10
2018,04,23,19,10,14.10
2018,04,23,19,11,14.10
2018,04,23,19,12,14.10
2018,04,23,19,13,14.10
2018,04,23,19,14,14.20
2018,04,23,19,15,14.20
2018,04,23,19,16,14.20
2018,04,23,19,17,14.20
2018,04,23,19,18,14.20
2018,04,23,19,19,14.30
2018,04,23,19,20,14.30
2018,04,23,19,21,14.30
2018,04,23,19,22,14.30
2018,04,23,19,23,14.30
2018,04,23,19,24,14.40
2018,04,23,19,25,14.40
2018,04,23,19,26,14.40
2018,04,23,19,27,14.40
2018,04,23,19,28,14.40
2018,04,23,19,29,14.40
2018,04,23,19,30,14.40
2018,04,23,19,31,14.40
2018,04,23,19,32,14.40
2018,04,23,19,33,14.40
2018,04,23,19,34,14.40
2018,04,23,19,35,14.30
2018,04,23,19,36,14.30
2018,04,23,19,37,14.30
2018,04,23,19,38,14.30
2018,04,23,19,39,14.30
2018,04,23,19,40,14.30
2018,04,23,19,41,14.30
2018,04,23,19,42,14.30
2018,04,23,19,43,14.30
2018,04,23,19,44,14.30
2018,04,23,19,45,14.30
2018,04,23,19,46,14.30
2018,04,23,19,47,14.30
2018,04,23,19,48,14.30
